Погода в Горках

Россия / Новгородская область     57°59′25″N   30°02′46″E
темп.,
°C
ветер,
м/с
пор.,
м/с
влажн.,
%
обл.,
%
осадки,
мм/ч
давл.,
гПа
погр.,
м
14 апреля, ср
ср1400:00+7ссз3780100 0.9 1018354
03:00+5ссз4880100 2.9 1018394
06:00+4с3878100 1.5 1018516
09:00+4с3970100 1.9 1019577
12:00+4с3866100 0.0 1020597
15:00+5с2664100 0.0 1021553
18:00+5всв1370100 0.0 1021187
21:00+4св2279100 0.0 102346
15 апреля, чт
чт1500:00+3ссв2685100 0.0 1024143
03:00+2ссв31086100 0.0 1024301
06:00+2ссв4128148 0.0 1025408
09:00+4ссв5116679 0.0 1026582
12:00+8св585365 0.0 10261041
15:00+9св6848100 0.0 10261285
18:00+8св51051100 0.0 10261237
21:00+6св51257100 0.0 1027809
16 апреля, пт
пт1600:00+5св5126694 0.0 1027635
03:00+3св51277100 0.0 1027539
06:00+2св5127897 0.0 1027479
09:00+4св51267100 0.0 1027559
12:00+6всв5125999 0.0 1027736
15:00+10всв61048100 0.0 10271038
18:00+9всв51046100 0.0 10271012
21:00+8всв51250100 0.0 1028765
17 апреля, сб
сб1700:00+7всв51257100 0.0 1029594
03:00+6всв5126299 0.0 1030504
06:00+4всв51367100 0.0 1030459
09:00+6всв41262100 0.0 1031484
12:00+11всв5844100 0.0 1031953
15:00+13в5734100 0.0 10311321
18:00+13всв4842100 0.0 10311269
21:00+7всв396465 0.0 1031179
18 апреля, вс
вс1800:00+5в311705 0.0 1032230
03:00+3всв397721 0.0 1032190
06:00+2всв28835 0.0 1032160
09:00+8в37595 0.0 1032380
12:00+12в46425 0.0 10321414
15:00+14в45375 0.0 10301792
18:00+13в35425 0.0 10301788
21:00+8всв24665 0.0 103061